TimeCST,TemperatureF,Dew PointF,Humidity,Sea Level PressureIn,VisibilityMPH,Wind Direction,Wind SpeedMPH,Gust SpeedMPH,PrecipitationIn,Events,Conditions,WindDirDegrees,DateUTC
12:15 AM,33.8,23.0,65,30.26,10.0,Calm,Calm,-,N/A,,Clear,0,2013-11-15 06:15:00
12:55 AM,35.6,23.0,60,30.25,10.0,Calm,Calm,-,N/A,,Clear,0,2013-11-15 06:55:00
1:15 AM,35.6,23.0,60,30.24,10.0,Calm,Calm,-,N/A,,Clear,0,2013-11-15 07:15:00
1:35 AM,39.2,23.0,52,30.25,10.0,Calm,Calm,-,N/A,,Clear,0,2013-11-15 07:35:00
1:55 AM,41.0,23.0,49,30.24,10.0,WSW,3.5,-,N/A,,Clear,240,2013-11-15 07:55:00
2:15 AM,41.0,23.0,49,30.24,10.0,SSW,3.5,-,N/A,,Clear,210,2013-11-15 08:15:00
2:35 AM,37.4,26.6,65,30.23,10.0,Calm,Calm,-,N/A,,Clear,0,2013-11-15 08:35:00
2:55 AM,39.2,24.8,56,30.23,10.0,Calm,Calm,-,N/A,,Clear,0,2013-11-15 08:55:00
3:15 AM,41.0,26.6,57,30.22,10.0,Calm,Calm,-,N/A,,Clear,0,2013-11-15 09:15:00
3:35 AM,42.8,26.6,53,30.22,10.0,Calm,Calm,-,N/A,,Clear,0,2013-11-15 09:35:00
3:55 AM,48.2,24.8,40,30.23,10.0,SSW,4.6,-,N/A,,Clear,200,2013-11-15 09:55:00
4:15 AM,48.2,26.6,43,30.23,10.0,SSE,5.8,-,N/A,,Mostly Cloudy,150,2013-11-15 10:15:00
4:35 AM,48.2,26.6,43,30.23,10.0,WSW,3.5,-,N/A,,Mostly Cloudy,250,2013-11-15 10:35:00
4:55 AM,50.0,26.6,40,30.24,10.0,Calm,Calm,-,N/A,,Mostly Cloudy,0,2013-11-15 10:55:00
5:15 AM,50.0,26.6,40,30.23,10.0,South,3.5,-,N/A,,Overcast,170,2013-11-15 11:15:00
5:35 AM,50.0,28.4,43,30.24,10.0,South,5.8,-,N/A,,Mostly Cloudy,180,2013-11-15 11:35:00
5:55 AM,50.0,28.4,43,30.25,10.0,SSE,6.9,-,N/A,,Overcast,150,2013-11-15 11:55:00
6:15 AM,50.0,28.4,43,30.25,10.0,ESE,4.6,-,N/A,,Overcast,120,2013-11-15 12:15:00
6:35 AM,50.0,30.2,47,30.25,10.0,SE,4.6,-,N/A,,Overcast,140,2013-11-15 12:35:00
6:55 AM,50.0,30.2,47,30.25,10.0,Calm,Calm,-,N/A,,Overcast,0,2013-11-15 12:55:00
7:15 AM,50.0,32.0,50,30.25,10.0,SSE,9.2,-,N/A,,Overcast,150,2013-11-15 13:15:00
7:35 AM,50.0,32.0,50,30.25,10.0,ESE,3.5,-,N/A,,Overcast,120,2013-11-15 13:35:00
7:55 AM,50.0,32.0,50,30.25,10.0,SE,11.5,18.4,N/A,,Overcast,140,2013-11-15 13:55:00
8:15 AM,50.0,33.8,54,30.25,10.0,ESE,6.9,-,N/A,,Overcast,110,2013-11-15 14:15:00
8:35 AM,51.8,33.8,50,30.25,10.0,ESE,4.6,-,N/A,,Overcast,120,2013-11-15 14:35:00
8:55 AM,51.8,35.6,54,30.24,10.0,SE,8.1,-,N/A,,Overcast,130,2013-11-15 14:55:00
9:15 AM,51.8,35.6,54,30.23,10.0,ESE,6.9,-,N/A,,Mostly Cloudy,120,2013-11-15 15:15:00
9:35 AM,51.8,37.4,58,30.24,10.0,ESE,5.8,-,N/A,,Mostly Cloudy,120,2013-11-15 15:35:00
9:55 AM,51.8,37.4,58,30.24,10.0,SE,6.9,-,N/A,,Overcast,130,2013-11-15 15:55:00
10:15 AM,51.8,37.4,58,30.23,10.0,SSE,6.9,-,N/A,,Overcast,150,2013-11-15 16:15:00
10:35 AM,51.8,39.2,62,30.23,10.0,SE,5.8,-,N/A,,Overcast,140,2013-11-15 16:35:00
10:55 AM,51.8,39.2,62,30.22,10.0,ESE,4.6,-,N/A,,Overcast,110,2013-11-15 16:55:00
11:15 AM,51.8,39.2,62,30.20,10.0,SE,5.8,-,N/A,,Overcast,130,2013-11-15 17:15:00
11:35 AM,53.6,39.2,58,30.18,10.0,East,5.8,-,N/A,,Overcast,100,2013-11-15 17:35:00
11:55 AM,53.6,41.0,62,30.16,10.0,ESE,6.9,-,N/A,,Overcast,120,2013-11-15 17:55:00
12:15 PM,55.4,41.0,58,30.16,10.0,Calm,Calm,-,N/A,,Overcast,0,2013-11-15 18:15:00
12:35 PM,55.4,41.0,58,30.16,10.0,ESE,5.8,-,N/A,,Overcast,110,2013-11-15 18:35:00
12:55 PM,53.6,41.0,62,30.15,10.0,SE,3.5,-,N/A,,Overcast,130,2013-11-15 18:55:00
1:15 PM,53.6,42.8,67,30.15,10.0,SE,3.5,-,N/A,Rain,Rain,140,2013-11-15 19:15:00
1:35 PM,53.6,42.8,67,30.14,10.0,East,3.5,-,N/A,,Light Drizzle,100,2013-11-15 19:35:00
1:55 PM,51.8,44.6,76,30.15,7.0,SE,3.5,-,N/A,Rain,Light Rain,130,2013-11-15 19:55:00
2:15 PM,51.8,44.6,76,30.15,10.0,East,4.6,-,N/A,Rain,Rain,80,2013-11-15 20:15:00
2:35 PM,51.8,44.6,76,30.15,10.0,NE,3.5,-,N/A,,Overcast,40,2013-11-15 20:35:00
2:55 PM,51.8,44.6,76,30.16,10.0,NNE,3.5,-,N/A,Rain,Light Rain,20,2013-11-15 20:55:00
3:15 PM,51.8,44.6,76,30.16,10.0,Calm,Calm,-,N/A,,Overcast,0,2013-11-15 21:15:00
3:35 PM,51.8,44.6,76,30.16,10.0,Calm,Calm,-,N/A,Rain,Light Rain,0,2013-11-15 21:35:00
3:55 PM,51.8,44.6,76,30.17,10.0,Calm,Calm,-,N/A,,Light Drizzle,0,2013-11-15 21:55:00
4:15 PM,50.0,46.4,87,30.18,5.0,Calm,Calm,-,N/A,Rain,Rain,0,2013-11-15 22:15:00
4:35 PM,50.0,46.4,87,30.11,5.0,ESE,6.9,-,N/A,Rain,Light Rain,120,2013-11-15 22:35:00
4:55 PM,50.0,44.6,82,30.10,10.0,SE,6.9,16.1,N/A,,Mostly Cloudy,130,2013-11-15 22:55:00
5:15 PM,50.0,44.6,82,30.10,10.0,ESE,9.2,-,N/A,,Clear,120,2013-11-15 23:15:00
5:35 PM,50.0,44.6,82,30.13,10.0,NW,4.6,-,N/A,,Scattered Clouds,320,2013-11-15 23:35:00
5:55 PM,50.0,44.6,82,30.13,10.0,Calm,Calm,-,N/A,,Mostly Cloudy,0,2013-11-15 23:55:00
6:15 PM,50.0,44.6,82,30.15,10.0,East,3.5,-,N/A,,Overcast,90,2013-11-16 00:15:00
6:35 PM,50.0,44.6,82,30.14,10.0,Calm,Calm,-,N/A,,Overcast,0,2013-11-16 00:35:00
6:55 PM,50.0,44.6,82,30.16,7.0,Calm,Calm,-,N/A,,Overcast,0,2013-11-16 00:55:00
7:15 PM,50.0,44.6,82,30.15,7.0,ESE,4.6,-,N/A,,Overcast,110,2013-11-16 01:15:00
7:35 PM,50.0,44.6,82,30.14,7.0,East,6.9,-,N/A,,Overcast,100,2013-11-16 01:35:00
7:55 PM,50.0,44.6,82,30.15,7.0,Calm,Calm,-,N/A,,Overcast,0,2013-11-16 01:55:00
8:15 PM,50.0,44.6,82,30.15,7.0,Calm,Calm,-,N/A,,Overcast,0,2013-11-16 02:15:00
8:35 PM,50.0,44.6,82,30.15,7.0,NE,3.5,-,N/A,,Overcast,50,2013-11-16 02:35:00
8:55 PM,50.0,46.4,87,30.16,7.0,Calm,Calm,-,N/A,,Overcast,0,2013-11-16 02:55:00
9:15 PM,50.0,44.6,82,30.16,7.0,Calm,Calm,-,N/A,,Overcast,0,2013-11-16 03:15:00
9:35 PM,50.0,44.6,82,30.16,7.0,Calm,Calm,-,N/A,,Overcast,0,2013-11-16 03:35:00
9:55 PM,50.0,46.4,87,30.16,7.0,Calm,Calm,-,N/A,,Overcast,0,2013-11-16 03:55:00
10:15 PM,50.0,46.4,87,30.16,7.0,Calm,Calm,-,N/A,,Overcast,0,2013-11-16 04:15:00
10:35 PM,50.0,46.4,87,30.18,7.0,Calm,Calm,-,N/A,,Overcast,0,2013-11-16 04:35:00
10:55 PM,50.0,46.4,87,30.17,7.0,Calm,Calm,-,N/A,,Overcast,0,2013-11-16 04:55:00
11:15 PM,50.0,46.4,87,30.17,5.0,Calm,Calm,-,N/A,,Overcast,0,2013-11-16 05:15:00
11:35 PM,50.0,46.4,87,30.16,5.0,Calm,Calm,-,N/A,,Overcast,0,2013-11-16 05:35:00
11:55 PM,50.0,46.4,87,30.16,7.0,East,4.6,-,N/A,,Overcast,80,2013-11-16 05:55:00